www.pogodaiklimat.ru

Погода и климат >> Архив погоды >> Фиджи >> Sigatoka


ПОГОДА в Sigatoka

  • Прогноз погоды в Sigatoka
  • Монитор погоды в Sigatoka
  • Климат города

АРХИВ ПОГОДЫ в Sigatoka

Время (UTC), дата Ветер
(напр.,м/с)
 
Видим.   Явления Облачность Т
(С)
Тd
(С)
f
(%)
Тe
(С)
Тes
(С)
Комфортность P
(гПа)
Po
(гПа)
Тmin
(С)
Tmax
(С)
R
(мм)
R24
(мм)
S
(см)
00 10.08 ЮВ 3 н/о н/о +27.4 +20.7 67 +34 +34 очень
душно
1015.2 1014.1 +15.6
03 10.08 ЮВ 3 н/о н/о +26.9 +21.0 70 +34 +34 очень
душно
1013.2 1012.1
06 10.08 ЮВ 2 н/о н/о +24.3 +21.7 85 +31 +31 очень
душно
1014.0 1012.9
09 10.08 н/о н/о +21.8 +20.8 94 1015.9 1014.8
12 10.08 СЗ 1 н/о н/о +20.4 +19.8 96 +26 +26 душно 1015.7 1014.6 +27.8
15 10.08 СВ 1 н/о н/о +20.5 +20.2 98 +26 +26 душно 1014.5 1013.4
18 10.08 СВ 2 н/о н/о +20.0 +19.6 98 +24 +24 комфорт 1015.2 1014.1
21 10.08 СВ 1 н/о н/о +22.2 +20.8 92 +29 +29 очень
душно
1016.5 1015.4
00 11.08 ЮВ 3 н/о н/о +25.2 +20.9 77 +32 +32 очень
душно
1016.7 1015.6 +19.4
03 11.08 ЮВ 3 н/о н/о +25.1 +20.6 76 +31 +31 очень
душно
1015.3 1014.2
06 11.08 В 3 н/о н/о +23.2 +19.4 79 +30 +30 очень
душно
1015.6 1014.5
09 11.08 В 2 н/о н/о +22.2 +20.7 91 +29 +29 очень
душно
1016.8 1015.7
12 11.08 ЮВ 3 н/о н/о +22.7 +20.8 89 +30 +30 очень
душно
1016.7 1015.6 +28.1 3
15 11.08 ЮВ 1 н/о н/о +21.7 +21.0 96 +28 +28 душно 1015.7 1014.6
18 11.08 В 2 н/о н/о +21.7 +21.1 96 +28 +28 душно 1015.9 1014.8 2
21 11.08 ЮВ 3 н/о н/о +24.7 +21.5 82 +31 +31 очень
душно
1017.0 1015.9
00 12.08 ЮВ 4 н/о н/о +25.4 +21.4 79 +32 +32 очень
душно
1016.4 1015.3 +21.0 4
03 12.08 ЮВ 4 н/о н/о +25.1 +21.7 81 +32 +32 очень
душно
1014.8 1013.7
06 12.08 В 3 н/о н/о +22.8 +21.1 90 +30 +30 очень
душно
1015.3 1014.2
09 12.08 ЮВ 3 н/о н/о +21.8 +20.8 94 +28 +28 душно 1016.8 1015.7
12 12.08 В 3 н/о н/о +21.3 +20.3 94 +26 +26 душно 1017.1 1016.0 +26.8 2
15 12.08 В 2 н/о н/о +20.9 +18.8 88 +26 +26 душно 1016.0 1014.9
18 12.08 В 1 н/о н/о +19.5 +18.7 95 +23 +23 комфорт 1016.1 1015.0
21 12.08 В 3 н/о н/о +24.1 +19.4 75 +29 +29 душно 1017.4 1016.3
00 13.08 ЮВ 4 н/о н/о +26.2 +20.3 70 +32 +32 очень
душно
1015.4 1014.3 +18.9
03 13.08 ЮВ 4 н/о н/о +26.0 +20.7 73 +33 +33 очень
душно
1012.9 1011.8
06 13.08 ЮВ 2 н/о н/о +23.7 +19.7 78 +29 +29 душно 1014.4 1013.3
09 13.08 В 2 н/о н/о +21.6 +19.0 85 +26 +26 душно 1015.4 1014.3
12 13.08 штиль 0 н/о н/о +19.9 +19.0 95 +23 +23 комфорт 1015.4 1014.3 +26.5
15 13.08 штиль 0 н/о н/о +20.2 +19.5 96 +24 +24 комфорт 1014.4 1013.3
18 13.08 СВ 2 н/о н/о +18.6 +18.2 98 +20 +20 1013.9 1012.8
21 13.08 С 1 н/о н/о +22.1 +19.9 87 +28 +28 душно 1015.6 1014.5
00 14.08 ЮВ 3 н/о н/о +27.8 +22.1 71 +36 +36 очень
душно
1013.5 1012.4 +18.2
03 14.08 ЮВ 3 н/о н/о +27.1 +22.2 75 +35 +35 очень
душно
1011.0 1009.9
06 14.08 В 2 н/о н/о +25.3 +22.3 83 +33 +33 очень
душно
1012.0 1010.9
09 14.08 штиль 0 н/о н/о +22.6 +21.6 94 +30 +30 очень
душно
1013.6 1012.5
12 14.08 СВ 1 н/о н/о +22.2 +21.1 93 +29 +29 очень
душно
1013.3 1012.2 +28.3
15 14.08 СЗ 1 н/о н/о +20.8 +20.3 97 +27 +27 душно 1012.3 1011.2
18 14.08 СВ 1 н/о н/о +21.4 +20.8 96 +27 +27 душно 1012.7 1011.6
21 14.08 СВ 2 н/о н/о +22.0 +21.1 95 +28 +28 душно 1014.1 1013.0
00 15.08 З 2 н/о н/о +25.8 +21.9 79 +33 +33 очень
душно
1012.0 1010.9 +20.5 0.5
03 15.08 Ю 2 н/о н/о +23.9 +21.9 89 +31 +31 очень
душно
1011.3 1010.2
06 15.08 ЮВ 1 н/о н/о +22.4 +21.5 95 +30 +30 очень
душно
1011.9 1010.8 11
09 15.08 штиль 0 н/о н/о +21.5 +21.0 97 +27 +27 душно 1012.7 1011.6
12 15.08 н/о н/о +21.4 +21.0 98 1011.6 1010.5 +28.5 0.5
15 15.08 З 1 н/о н/о +21.4 +21.0 98 +27 +27 душно 1007.8 1006.7
18 15.08 В 1 н/о н/о +21.2 +20.9 98 +27 +27 душно 1009.9 1008.8 1
21 15.08 З 2 н/о н/о +22.0 +21.0 94 +28 +28 душно 1012.3 1011.2
00 16.08 Ю 4 н/о н/о +22.0 +19.2 84 +27 +27 душно 1011.7 1010.6 +20.8 7
03 16.08 Ю 2 н/о н/о +21.6 +18.4 82 +26 +26 душно 1010.4 1009.3
06 16.08 СВ 1 н/о н/о +20.7 +19.0 90 +26 +26 душно 1010.7 1009.6
09 16.08 Ю 3 н/о н/о +22.0 +17.2 74 +26 +26 душно 1012.5 1011.4
12 16.08 Ю 3 н/о н/о +21.8 +16.0 70 +26 +26 душно 1012.0 1010.9 +27.0
15 16.08 Ю 2 н/о н/о +20.9 +15.1 69 +25 +25 комфорт 1011.0 1009.9
18 16.08 Ю 3 н/о н/о +21.3 +14.6 66 +24 +24 комфорт 1012.2 1011.1
21 16.08 Ю 4 н/о н/о +23.3 +14.3 57 +27 +27 душно 1013.9 1012.8

 

Местоположение метеостанции Sigatoka (Фиджи): широта -18.15 долгота 178.41 высота над уровнем моря 9 м.

В архиве по умолчанию представлена погода в Sigatoka за последнюю неделю. Архивные данные за месяц целиком и за предыдущие месяцы, начиная с января 2011 года, Вы можете получить, выбрав интересующий диапазон дат из раскрывающегося списка и нажав кнопку "Ввод!".

Внимание! Время в таблицах - всемирное. Для получения местного времени необходимо прибавить поправку, которая в Sigatoka равна 12 ч.

Смотрите также архив погоды в соседних городах и на ближайших метеорологических станциях:

Погода в Nausori (Фиджи) (19 км)
Погода в Rakiraki Aws (Фиджи) (91 км)
Погода в Vunisea (Фиджи) (104 км)
Погода в Nandi (Фиджи) (111 км)
Погода в Vanua Mbalavu (Фиджи) (114 км)
Погода в Nabouwalu (Фиджи) (132 км)
Погода в Matuku (Фиджи) (158 км)
Погода в Yasawa-I-Rara (Фиджи) (184 км)
Погода в Viwa Island (Фиджи) (195 км)
Погода в Undu Point (Фиджи) (280 км)

Пояснения к столбцам:

Ветер - указаны скорость ветра в м/с - средняя за 10 мин, порывы в срок и между сроками (в фигурных скобках) и направление, откуда дует ветер: С - северный, СВ - северо-восточный, В - восточный, ЮВ - юго-восточный, Ю - южный, ЮЗ - юго-западный, З - западный, СЗ - северо-западный.
Видимость - горизонтальная дальность видимости в метрах или километрах. При видимости от 1 до 10 км при отсутствии осадков обычно наблюдается дымка, при ухудшении видимости до 1 км и менее - туман. В сухую погоду видимость может ухудшаться дымом, пылью или мглою.
Явления - указаны атмосферные явления, наблюдавшиеся в срок или в последний час перед сроком; фигурными скобками обозначены явления, наблюдавшиеся между сроками (за 1-3 часа до срока); квадратными скобками обозначены град или гололедные отложения с указанием их диаметра в мм.
Облачность - указаны через наклонную черту общая и нижняя облачность в баллах и высота нижней границы облаков в метрах; квадратными скобками обозначены формы облаков: Ci - перистые, Cs - перисто-слоистые, Cc - перисто-кучевые, Ac - высококучевые, As - высокослоистые, Sc - слоисто-кучевые, Ns - слоисто-дождевые, Cu - кучевые, Cb - кучево-дождевые. Подробнее классификацию облаков см. в Атласе облаков (PDF).
T - Температура воздуха - температура, измеренная на высоте 2 м над землей.
Td - Температура точки росы - температура, при понижении до которой содержащийся в воздухе водяной пар достигнет насыщения.
f - Относительная влажность воздуха - влажноcть воздуха, измеренная на высоте 2 м над землей.
Te - Эффективная температура - температура, которую ощущает одетый по сезону человек в тени. Характеристика душности погоды. При расчете учитывается влияние влажности воздуха и скорости ветра на теплоощущения человека.
Tes - Эффективная температура на солнце - температура, которую ощущает человек, с поправкой на солнечный нагрев. Характеристика знойности погоды. Зависит от высоты солнца над горизонтом, облачности и скорости ветра. Ночью, в пасмурную погоду, а также при ветре 12 м/с и более поправка равна нулю.
P - Атмосферное давление - приведенное к уровню моря атмосферное давление.
Po - Атмосферное давление - измеренное на уровне метеостанции атмосферное давление.
Tmin - Минимальная температура - минимум температуры воздуха на высоте 2 м над землей.
Tmax - Максимальная температура - максимум температуры воздуха на высоте 2 м над землей.
R - Количество осадков - Количество выпавших осадков за период времени, мм. При наведении курсора мыши на число - период времени, за который выпало указанное количество осадков.
R24 - Количество осадков - Количество выпавших осадков за 24 часа, мм.
S - Снежный покров - Высота снежного покрова, см. При наведении курсора мыши на число - состояние снежного покрова и степень покрытия местности в баллах.